DateTimeUTC,F1_A11,F1_S11,BsB_S11,BsG_S11,BsR_S11,BbsB_S11,BbsG_S11,BbsR_S11,BaB_A11,BaG_A11,BaR_A11,Tu_S11,T_S11,Uu_S11,U_S11,P_S11,T1_A11
2021-08-22T16:00:00Z,00000200,20000000,,,,,,,0000.13,0000.03,0000.25,21.1,27.5,07.9,05.4,0677.8,31.4
2021-08-22T16:01:00Z,00000200,20000000,,,,,,,-000.00,0000.02,-000.22,21.1,27.5,07.9,05.4,0677.8,31.4
2021-08-22T16:02:00Z,00000200,20000000,,,,,,,-000.07,0000.12,0000.23,21.1,27.5,07.9,05.4,0677.8,31.4
2021-08-22T16:03:00Z,00000200,60000000,,,,,,,0001.29,0001.05,0000.75,21.1,27.5,07.9,05.4,0677.8,31.4
2021-08-22T16:04:00Z,00000200,40000000,0006.61,0005.71,0003.80,0000.66,0000.72,0000.43,0001.32,0000.80,0001.07,21.2,27.4,08.1,05.6,0678.7,31.4
2021-08-22T16:05:00Z,00000200,00000000,0007.09,0005.49,0004.14,0000.83,0000.61,0000.52,0001.54,0001.64,0001.09,21.2,27.4,07.9,05.5,0678.7,31.4
2021-08-22T16:06:00Z,00000200,00000000,0007.10,0005.58,0004.12,0000.69,0000.79,0000.69,0001.50,0001.43,0001.53,21.3,27.3,08.0,05.6,0678.7,31.4
2021-08-22T16:07:00Z,00000200,00000000,0006.49,0005.70,0004.10,0000.56,0001.06,0000.74,0001.52,0001.58,0000.88,21.3,27.4,08.1,05.6,0678.7,31.4
2021-08-22T16:08:00Z,00000200,00000000,0006.82,0005.73,0003.99,0001.44,0000.72,0000.69,0001.96,0001.55,0001.34,21.3,27.4,08.1,05.6,0678.7,31.4
2021-08-22T16:09:00Z,00000200,00000000,0007.38,0005.58,0004.21,0001.56,0000.68,0000.68,0001.45,0001.78,0001.12,21.3,27.4,08.2,05.7,0678.7,31.4
2021-08-22T16:10:00Z,00000200,00000000,0006.43,0006.08,0003.97,0001.14,0000.53,0000.71,0001.63,0001.21,0001.55,21.3,27.4,08.2,05.7,0678.7,31.4
2021-08-22T16:11:00Z,00000200,00000000,0006.89,0005.56,0003.95,0000.85,0000.94,0000.38,0001.82,0001.33,0000.97,21.3,27.4,08.2,05.7,0678.7,31.4
2021-08-22T16:12:00Z,00000200,00000000,0006.94,0005.70,0004.08,0001.50,0000.80,0000.68,0000.90,0001.24,0000.76,21.3,27.4,08.2,05.7,0678.7,31.4
2021-08-22T16:13:00Z,00000200,00000000,0007.39,0005.85,0004.06,0001.24,0000.79,0000.73,0001.81,0001.69,0001.64,21.3,27.3,08.1,05.6,0678.7,31.4
2021-08-22T16:14:00Z,00000200,00000000,0007.08,0005.57,0003.39,0000.92,0000.80,0000.53,0001.60,0001.47,0000.74,21.3,27.3,08.0,05.6,0678.7,31.4
2021-08-22T16:15:00Z,00000200,00000000,0006.76,0005.69,0003.97,0000.85,0000.64,0000.61,0001.18,0001.47,0001.02,21.3,27.4,07.9,05.5,0678.7,31.4
2021-08-22T16:16:00Z,00000200,00000000,0007.00,0005.54,0003.81,0000.68,0000.77,0000.66,0000.66,0000.25,0000.46,21.3,27.4,07.8,05.4,0678.7,31.4
2021-08-22T16:17:00Z,00000200,00000000,0005.22,0004.71,0002.95,0000.99,0000.75,0000.43,0000.90,0001.23,0000.91,21.3,27.4,07.2,05.0,0678.7,31.5
2021-08-22T16:18:00Z,00000200,00000000,0005.87,0004.64,0003.53,0001.31,0000.60,0000.24,0001.59,0001.04,0001.11,21.3,27.4,07.3,05.0,0678.7,31.5
2021-08-22T16:19:00Z,00000200,00000000,0006.38,0005.46,0003.53,0001.11,0000.64,0000.29,0001.69,0001.53,0000.96,21.3,27.3,07.5,05.2,0678.7,31.5
2021-08-22T16:20:00Z,00000200,00000000,0006.93,0005.65,0004.41,0000.93,0001.04,0000.90,0002.10,0001.89,0001.94,21.3,27.3,07.9,05.5,0678.8,31.5
2021-08-22T16:21:00Z,00000200,00000000,0005.97,0005.92,0003.79,0001.59,0001.13,0000.21,0001.49,0001.56,0001.12,21.3,27.4,08.0,05.5,0678.8,31.5
2021-08-22T16:22:00Z,00000200,00000000,0006.15,0005.78,0003.52,0001.41,0000.73,0000.29,0001.83,0001.85,0001.15,21.3,27.4,08.0,05.6,0678.8,31.5
2021-08-22T16:23:00Z,00000200,00000000,0006.37,0005.62,0004.05,0001.51,0000.59,0000.69,0001.45,0001.24,0001.13,21.3,27.3,08.1,05.6,0678.8,31.5
2021-08-22T16:24:00Z,00000200,00000000,0006.74,0005.37,0003.78,0001.10,0000.78,0000.72,0001.11,0001.30,0000.84,21.3,27.3,08.1,05.6,0678.8,31.5
2021-08-22T16:25:00Z,00000200,00000000,0006.58,0006.06,0004.04,0000.75,0000.49,0000.49,0001.78,0001.49,0001.44,21.3,27.3,08.0,05.6,0678.8,31.5
2021-08-22T16:26:00Z,00000200,00000000,0007.00,0005.39,0003.97,0001.20,0000.96,0000.84,0001.58,0001.40,0001.27,21.3,27.4,08.1,05.6,0678.8,31.5
2021-08-22T16:27:00Z,00000200,00000000,0006.98,0005.95,0004.05,0001.44,0000.95,0000.82,0001.22,0001.00,0000.90,21.3,27.3,07.9,05.5,0678.7,31.5
2021-08-22T16:28:00Z,00000200,00000000,0007.31,0005.73,0003.86,0001.01,0001.04,0000.61,0001.42,0001.36,0001.26,21.3,27.4,07.9,05.5,0678.7,31.5
2021-08-22T16:29:00Z,00000200,00000000,0007.12,0005.48,0003.70,0000.50,0000.90,0000.28,0001.38,0001.63,0001.05,21.3,27.4,08.0,05.6,0678.8,31.5
2021-08-22T16:30:00Z,00000200,00000000,0006.95,0005.81,0004.01,0000.82,0000.74,0000.71,0001.88,0001.72,0001.30,21.3,27.4,08.1,05.6,0678.8,31.5
2021-08-22T16:31:00Z,00000200,00000000,0006.71,0005.52,0004.13,0001.04,0000.89,0000.30,0001.46,0001.22,0001.07,21.3,27.3,08.1,05.6,0678.8,31.5
2021-08-22T16:32:00Z,00000200,00000000,0006.22,0005.81,0003.69,0001.08,0000.69,0000.73,0001.63,0001.70,0001.26,21.3,27.4,08.1,05.6,0678.8,31.5
2021-08-22T16:33:00Z,00000200,00000000,0006.95,0005.16,0003.79,0000.70,0000.72,0000.81,0001.17,0000.63,0000.92,21.3,27.4,07.9,05.5,0678.8,31.5
2021-08-22T16:34:00Z,00000200,00000000,0005.96,0005.87,0003.87,0001.05,0000.90,0000.62,0001.86,0001.93,0001.18,21.3,27.4,08.0,05.6,0678.8,31.5
2021-08-22T16:35:00Z,00000200,00000000,0006.62,0006.08,0004.10,0001.13,0000.94,0000.54,0001.43,0001.28,0001.45,21.3,27.4,08.1,05.6,0678.8,31.5
2021-08-22T16:36:00Z,00000200,00000000,0007.06,0005.42,0003.88,0001.26,0000.86,0000.82,0001.34,0001.33,0000.87,21.3,27.4,08.0,05.6,0678.8,31.5
2021-08-22T16:37:00Z,00000200,00000000,0006.57,0005.82,0003.38,0000.84,0001.02,0000.31,0001.62,0001.45,0001.04,21.3,27.4,08.1,05.7,0678.8,31.5
2021-08-22T16:38:00Z,00000200,00000000,0006.68,0005.51,0003.81,0000.35,0000.98,0000.71,0001.56,0001.06,0001.23,21.3,27.4,08.1,05.7,0678.8,31.5
2021-08-22T16:39:00Z,00000200,00000000,0006.19,0005.22,0003.63,0000.79,0001.04,0000.67,0000.97,0001.43,0000.91,21.3,27.4,08.0,05.6,0678.8,31.5
2021-08-22T16:40:00Z,00000200,00000000,0006.35,0005.28,0003.78,0000.69,0000.67,0000.53,0001.26,0001.04,0000.81,21.3,27.4,07.8,05.4,0678.8,31.5
2021-08-22T16:41:00Z,00000200,00000000,0006.19,0005.22,0003.75,0001.18,0000.75,0000.85,0000.98,0001.00,0001.06,21.3,27.4,07.7,05.4,0678.8,31.5
2021-08-22T16:42:00Z,00000200,00000000,0005.90,0005.46,0003.69,0000.89,0001.02,0000.69,0002.30,0001.61,0001.18,21.3,27.4,07.6,05.3,0678.8,31.5
2021-08-22T16:43:00Z,00000200,00000000,0005.47,0005.57,0003.54,0000.69,0000.85,0000.60,0001.80,0002.14,0001.44,21.3,27.4,08.0,05.6,0678.8,31.5
2021-08-22T16:44:00Z,00000200,00000000,0006.86,0005.79,0003.82,0000.80,0000.74,0000.42,0001.86,0001.81,0001.35,21.3,27.4,08.4,05.8,0678.8,31.5
2021-08-22T16:45:00Z,00000200,00000000,0006.71,0005.83,0004.40,0000.70,0000.94,0000.48,0001.55,0000.98,0001.05,21.3,27.4,08.4,05.8,0678.8,31.5
2021-08-22T16:46:00Z,00000200,00000000,0006.25,0005.57,0003.71,0000.94,0000.72,0000.55,0001.08,0001.43,0000.97,21.3,27.4,08.4,05.8,0678.8,31.5
2021-08-22T16:47:00Z,00000200,00000000,0006.17,0005.67,0003.85,0000.78,0000.92,0000.68,0001.66,0001.42,0001.42,21.3,27.4,08.3,05.8,0678.8,31.5
2021-08-22T16:48:00Z,00000200,00000000,0006.40,0005.77,0003.66,0001.71,0000.72,0000.57,0001.63,0001.61,0001.25,21.3,27.4,08.4,05.8,0678.8,31.5
2021-08-22T16:49:00Z,00000200,00000000,0007.28,0005.62,0003.90,0000.85,0000.83,0000.36,0001.47,0001.45,0000.91,21.3,27.4,08.4,05.9,0678.8,31.5
2021-08-22T16:50:00Z,00000200,00000000,0006.60,0005.52,0003.72,0001.13,0000.97,0000.45,0001.31,0001.16,0001.14,21.3,27.4,08.4,05.8,0678.7,31.5
2021-08-22T16:51:00Z,00000200,00000000,0005.78,0005.35,0003.96,0001.14,0000.96,0000.45,0001.53,0001.51,0001.11,21.3,27.4,08.3,05.8,0678.7,31.5
2021-08-22T16:52:00Z,00000200,00000000,0006.39,0005.52,0003.77,0000.95,0000.79,0000.49,0001.73,0001.30,0001.29,21.3,27.4,08.4,05.8,0678.7,31.5
2021-08-22T16:53:00Z,00000200,00000000,0005.90,0005.15,0003.95,0001.05,0000.84,0000.59,0001.71,0001.37,0001.00,21.3,27.4,08.4,05.8,0678.7,31.5
2021-08-22T16:54:00Z,00000200,00000000,0006.05,0005.59,0003.87,0000.87,0000.88,0000.86,0001.21,0001.55,0000.99,21.3,27.4,08.4,05.8,0678.7,31.5
2021-08-22T16:55:00Z,00000200,00000000,0006.60,0005.47,0003.86,0001.06,0000.75,0000.42,0001.38,0001.45,0001.27,21.3,27.4,08.2,05.8,0678.7,31.5
2021-08-22T16:56:00Z,00000200,00000000,0006.49,0005.86,0003.80,0001.13,0001.05,0000.62,0001.43,0001.20,0000.94,21.3,27.4,08.4,05.8,0678.7,31.5
2021-08-22T16:57:00Z,00000200,40000000,,,,,,,0000.32,0000.24,0000.36,21.4,27.4,08.7,06.1,0678.7,31.5
2021-08-22T16:58:00Z,00000200,60000000,,,,,,,-000.01,-000.04,0000.17,21.2,27.5,08.1,05.5,0677.7,31.5
2021-08-22T16:59:00Z,00000200,20000000,,,,,,,-000.19,-000.10,-000.30,21.2,27.6,08.1,05.5,0677.7,31.5
